GW5682 Weather Reports


Display with metric or nautical units.
time (UTC)temp
F
wind
direction
speed
MPH
gust
MPH
rain 1hr
in
rain 24hr
in
rain mn
in
humidity
%
barometer
mb
20260506111147 54 0 6.0 8.0 0.00 0.00 0.00 74 1014.0
20260506110123 55 0 4.0 7.0 0.00 0.00 0.00 71 1014.1
20260506105147 55 45 2.0 4.0 0.00 0.00 0.00 71 1013.8
20260506104123 55 45 6.0 9.0 0.00 0.00 0.00 71 1013.6
20260506103147 55 315 6.0 8.0 0.00 0.00 0.00 70 1013.4
20260506102123 55 0 4.0 6.0 0.00 0.00 0.00 70 1013.3
20260506101147 55 0 7.0 9.0 0.00 0.00 0.00 70 1012.8
20260506100123 56 0 3.0 5.0 0.00 0.00 0.00 70 1013.1
20260506095147 56 0 2.0 3.0 0.00 0.00 0.00 70 1013.0
20260506094123 56 0 3.0 3.0 0.00 0.00 0.00 70 1012.8
20260506093147 56 0 4.0 7.0 0.00 0.00 0.00 70 1012.8
20260506092124 56 315 6.0 8.0 0.00 0.00 0.00 70 1012.7
20260506091147 56 23 4.0 5.0 0.00 0.00 0.00 70 1012.6
20260506090123 56 0 4.0 7.0 0.00 0.00 0.00 70 1012.4
20260506085147 56 0 3.0 4.0 0.00 0.00 0.00 70 1012.4
20260506084123 56 0 3.0 3.0 0.00 0.00 0.00 71 1012.3
20260506083147 56 315 4.0 5.0 0.00 0.00 0.00 71 1012.4
20260506082123 56 0 3.0 4.0 0.00 0.00 0.00 71 1012.2
20260506081147 56 0 3.0 4.0 0.00 0.00 0.00 71 1012.1
20260506080123 57 23 3.0 3.0 0.00 0.00 0.00 71 1012.2
20260506073208 57 90 3.0 4.0 0.00 0.00 0.00 71 1012.2
20260506072124 57 0 5.0 6.0 0.00 0.00 0.00 71 1012.2
20260506071147 58 248 4.0 7.0 0.00 0.00 0.00 71 1012.2
20260506070123 58 270 4.0 5.0 0.00 0.00 0.00 72 1012.2
20260506062124 59 0 7.0 8.0 0.00 0.00 0.00 73 1012.1
20260506061147 59 180 5.0 7.0 0.00 0.00 0.00 72 1012.1
20260506060123 59 0 7.0 11.0 0.00 0.00 0.00 73 1011.9
20260506050614 61 0 4.0 5.0 0.00 0.00 0.00 75 1011.7
20260506044613 62 0 5.0 11.0 0.00 0.00 0.00 75 1011.7
20260506043637 62 90 5.0 7.0 0.00 0.00 0.00 75 1011.7
20260506042613 62 293 5.0 7.0 0.00 0.00 0.00 75 1011.8
20260506041637 63 45 2.0 4.0 0.00 0.00 0.00 75 1011.6
20260506040613 63 0 5.0 7.0 0.00 0.00 0.00 75 1011.3
20260506035637 64 315 1.0 2.0 0.00 0.00 0.00 72 1011.3
20260506034613 65 0 5.0 8.0 0.00 0.00 0.00 72 1011.1
20260506033637 65 0 3.0 5.0 0.00 0.00 0.00 71 1011.0
20260506032613 66 0 3.0 5.0 0.00 0.00 0.00 71 1010.9
20260506031637 67 0 7.0 9.0 0.00 0.00 0.00 71 1010.7
20260506030613 68 0 5.0 7.0 0.00 0.00 0.00 71 1010.6
20260506025657 68 0 6.0 9.0 0.00 0.00 0.00 71 1010.5
20260506024613 68 0 5.0 7.0 0.00 0.00 0.00 70 1010.0
20260506023637 69 0 5.0 6.0 0.00 0.00 0.00 70 1009.7
20260506022613 69 0 5.0 8.0 0.00 0.00 0.00 71 1009.6
20260506021657 70 315 5.0 7.0 0.00 0.00 0.00 71 1009.2
20260506020613 71 0 2.0 3.0 0.00 0.00 0.00 70 1009.0
20260506015657 72 0 2.0 7.0 0.00 0.00 0.00 71 1008.9
20260506014613 72 0 6.0 8.0 0.00 0.00 0.00 70 1008.8
20260506013637 72 90 1.0 1.0 0.00 0.00 0.00 70 1008.6
20260506012613 73 315 4.0 5.0 0.00 0.00 0.00 66 1008.7
20260506011637 73 270 3.0 4.0 0.00 0.00 0.00 65 1008.3
20260506010634 73 315 5.0 7.0 0.00 0.00 0.00 64 1008.1
20260506005637 73 180 3.0 4.0 0.00 0.00 0.00 63 1008.0
20260506004614 74 45 2.0 3.0 0.00 0.00 0.00 62 1008.0
20260506003637 74 45 1.0 2.0 0.00 0.00 0.00 61 1008.0
20260506002613 76 0 4.0 7.0 0.00 0.00 0.00 62 1008.0
20260506001657 77 270 1.0 2.0 0.00 0.00 0.00 61 1008.0
20260506000613 78 45 1.0 3.0 0.00 0.00 0.00 60 1007.2
20260505235637 79 135 3.0 4.0 0.00 0.00 0.00 60 1007.4
20260505234613 80 0 1.0 2.0 0.00 0.00 0.00 58 1007.4
20260505233637 82 225 3.0 5.0 0.00 0.00 0.00 51 1007.4
20260505232613 83 0 2.0 4.0 0.00 0.00 0.00 45 1007.0
20260505231638 84 45 3.0 3.0 0.00 0.00 0.00 43 1006.7
20260505230613 85 270 2.0 4.0 0.00 0.00 0.00 43 1006.4
20260505225637 87 315 1.0 3.0 0.00 0.00 0.00 43 1006.6
20260505224613 89 0.0 0.0 0.00 0.00 0.00 51 1006.4
20260505223637 90 0.0 1.0 0.00 0.00 0.00 52 1006.0
20260505222613 91 0.0 1.0 0.00 0.00 0.00 50 1005.9
20260505221638 89 90 1.0 2.0 0.00 0.00 0.00 52 1005.9
20260505220613 91 225 5.0 5.0 0.00 0.00 0.00 43 1006.2
20260505215637 92 158 2.0 3.0 0.00 0.00 0.00 47 1006.2
20260505214613 90 45 4.0 6.0 0.00 0.00 0.00 51 1006.2
20260505213637 89 135 2.0 3.0 0.00 0.00 0.00 51 1006.3
20260505212613 91 90 4.0 6.0 0.00 0.00 0.00 46 1006.1
20260505211637 90 135 4.0 7.0 0.00 0.00 0.00 52 1006.6
20260505210613 90 248 5.0 8.0 0.00 0.00 0.00 51 1006.5
20260505205637 90 180 3.0 5.0 0.00 0.00 0.00 52 1006.7
20260505204613 89 158 5.0 9.0 0.00 0.00 0.00 55 1006.5
20260505203637 90 180 9.0 14.0 0.00 0.00 0.00 49 1006.9
20260505202613 90 270 3.0 4.0 0.00 0.00 0.00 54 1006.9
20260505201637 89 225 3.0 5.0 0.00 0.00 0.00 52 1006.9
20260505200613 88 225 5.0 7.0 0.00 0.00 0.00 55 1006.8
20260505195637 89 270 3.0 5.0 0.00 0.00 0.00 52 1007.2
20260505194613 89 90 3.0 4.0 0.00 0.00 0.00 55 1007.2
20260505193657 89 180 2.0 3.0 0.00 0.00 0.00 54 1007.0
20260505192613 87 180 1.0 3.0 0.00 0.00 0.00 56 1007.4
20260505191637 87 135 4.0 5.0 0.00 0.00 0.00 59 1007.2
20260505190613 86 270 3.0 3.0 0.00 0.00 0.00 60 1007.2
20260505185637 85 180 3.0 5.0 0.00 0.00 0.00 60 1007.3
20260505184613 84 90 5.0 9.0 0.00 0.00 0.00 60 1007.3
20260505183658 84 135 3.0 4.0 0.00 0.00 0.00 60 1007.3
20260505182614 84 135 2.0 4.0 0.00 0.00 0.00 57 1007.4
20260505181637 85 180 3.0 3.0 0.00 0.00 0.00 58 1007.4
20260505180634 85 180 3.0 5.0 0.00 0.00 0.00 60 1007.3
20260505175637 84 203 5.0 7.0 0.00 0.00 0.00 61 1007.2
20260505174613 83 158 3.0 5.0 0.00 0.00 0.00 61 1007.5
20260505173637 83 135 2.0 3.0 0.00 0.00 0.00 61 1007.3
20260505172613 82 158 5.0 8.0 0.00 0.00 0.00 60 1007.5
20260505171658 82 135 3.0 3.0 0.00 0.00 0.00 61 1007.5
20260505170613 82 90 3.0 5.0 0.00 0.00 0.00 61 1007.7
20260505165637 82 225 3.0 5.0 0.00 0.00 0.00 62 1007.6
20260505164613 81 135 2.0 3.0 0.00 0.00 0.00 66 1007.8
20260505163637 80 135 5.0 8.0 0.00 0.00 0.00 65 1007.6
20260505162613 81 180 4.0 6.0 0.00 0.00 0.00 64 1007.7
20260505161637 81 90 3.0 4.0 0.00 0.00 0.00 66 1007.4
20260505160613 80 90 3.0 5.0 0.00 0.00 0.00 68 1007.0
20260505152613 78 293 3.0 6.0 0.00 0.00 0.00 71 1007.3
20260505151637 78 180 4.0 6.0 0.00 0.00 0.00 70 1007.3
20260505150614 79 90 3.0 6.0 0.00 0.00 0.00 70 1007.3
20260505140613 73 180 5.0 7.0 0.00 0.00 0.00 75 1007.5
20260505124614 71 90 3.0 4.0 0.00 0.00 0.00 82 1007.2
20260505123637 71 315 3.0 7.0 0.00 0.00 0.00 82 1006.7
20260505122614 71 180 4.0 7.0 0.00 0.00 0.00 82 1006.8
20260505121637 71 135 1.0 3.0 0.00 0.00 0.00 82 1006.6
20260505120613 70 225 6.0 9.0 0.00 0.00 0.00 82 1006.5
20260505115637 70 135 2.0 4.0 0.00 0.00 0.00 83 1006.7
20260505114613 70 45 3.0 5.0 0.00 0.00 0.00 83 1006.6
20260505113637 70 23 3.0 3.0 0.00 0.00 0.00 83 1006.5
20260505112613 70 135 2.0 3.0 0.00 0.00 0.00 83 1006.2